#timestamp,LO_Frequency,Hit,StdDev 
1594368015.6,286046998.8,N
1594368035.4,286046998.6,N
1594368055.3,286046998.9,N
1594368075.1,286046998.7,N
1594368095.9,286047000.7,N
1594368115.7,286046998.5,N
1594368135.5,286046998.4,N
1594368155.4,286046999.6,N
1594368175.2,286046997.6,N
1594368195.1,286046997.9,N
1594368196.0,286046997.9,N
1594368215.8,286046997.9,N
1594368235.6,286046995.5,Y
1594368255.5,286046997.5,P
1594368275.3,286046995.1,P
1594368295.2,286046997.4,N
1594368315.0,286046994.9,Y
1594368315.9,286046994.9,P
1594368335.7,286046998.1,N
1594368355.6,286047001.2,N
1594368375.4,286047001.2,N
1594368395.3,286046998.1,N
1594368415.1,286047000.8,N
1594368416.0,286047000.8,N
1594368435.8,286047000.9,N
1594368455.7,286047001.0,N
1594368475.9,286046998.2,N
1594368495.7,286046998.6,N
1594368515.6,286046998.9,N
1594368535.4,286046996.5,N
1594368555.2,286046996.7,N
1594368575.1,286046998.8,N
1594368576.0,286046998.8,N
1594368595.8,286046997.7,N
1594368615.7,286046995.4,N
1594368635.5,286046996.0,N
1594368655.3,286046995.0,N
1594368675.2,286046996.3,N
1594368695.0,286046993.7,Y
1594368695.9,286046993.7,P
1594368715.8,286046995.1,N
1594368735.6,286047011.9,P
1594368755.4,286046996.1,N
1594368775.3,286046995.4,N
1594368795.1,286046997.6,N
1594368815.9,286046997.4,N
1594368835.7,286046995.4,N
1594368855.5,286046997.2,N
1594368905.4,286046998.8,E
1594368915.3,286047001.2,N
1594368935.2,286046999.7,P
1594368955.0,286046999.7,N
1594368955.9,286046999.7,N
1594368975.8,286047002.2,Y
1594368995.6,286047003.9,P
1594369015.4,286047004.3,N
1594369035.3,286047001.6,N
1594369055.1,286047000.7,N
1594369075.8,286047002.6,N
1594369095.7,286047002.2,N
1594369115.5,286047001.7,N
1594369135.4,286047001.9,N
1594369155.2,286047002.2,N
1594369175.0,286047001.5,N
1594369175.9,286047001.5,N
1594369195.8,286047001.7,N
1594369215.6,286047002.0,N
1594369235.4,286047002.5,N
1594369255.3,286047001.8,N
1594369275.1,286047001.9,N
1594369295.9,286047002.8,N
1594369315.7,286046999.8,N
1594369335.5,286047000.4,N
1594369355.4,286046997.8,N
1594369375.2,286046995.2,Y
1594369395.1,286046992.3,P
1594369396.0,286046992.3,N
1594369415.8,286046990.7,N
1594369435.6,286046991.4,N
1594369455.5,286046989.1,N
1594369475.3,286046989.6,N
1594369495.1,286046988.8,N
1594369515.9,286046988.8,N
1594369535.7,286046989.1,N
1594369555.6,286046987.0,Y
1594369575.4,286046997.4,P
1594369595.2,286046996.8,N
1594369615.1,286046996.9,N
1594369616.0,286046996.9,N
1594369635.8,286046996.7,N
1594369655.7,286046999.1,N
1594369675.5,286046999.0,N
1594369695.3,286046998.2,N
1594369715.2,286047000.7,N
1594369735.0,286047001.0,N
1594369735.9,286047001.0,N
1594369755.8,286046998.3,N
1594369775.6,286047000.8,N
1594369795.4,286046998.5,N
1594369815.3,286046998.7,N
1594369835.1,286046999.5,N
1594369855.8,286046996.6,N
1594369875.7,286046999.2,N
1594369895.5,286046998.5,N
1594369915.4,286046998.8,N
1594369935.2,286046998.6,N
1594369955.0,286047001.1,N
1594369955.9,286047001.1,N
1594369975.8,286047001.1,N
1594369995.6,286046998.5,N
1594370015.5,286046998.7,N
1594370035.3,286046998.2,N
1594370055.2,286047000.4,N
1594370075.9,286047002.4,N
1594370095.7,286047002.7,N
1594370115.6,286047002.5,N
1594370135.4,286047002.4,N
1594370155.3,286047002.0,N
1594370175.1,286047002.4,N
1594370176.0,286047002.4,N
1594370195.8,286047002.6,N
1594370215.7,286047002.0,N
1594370235.5,286047001.9,N
1594370255.3,286047001.9,N
1594370275.2,286046999.7,N
1594370295.0,286046998.1,N
1594370295.9,286046998.1,N
1594370315.8,286046999.0,N
1594370335.6,286046998.7,N
1594370355.4,286047001.2,N
1594370375.3,286046999.8,N
1594370395.1,286047000.6,N
1594370415.9,286047000.4,N
1594370435.7,286047000.4,N
1594370455.5,286047000.0,N
1594370475.4,286047002.7,N
1594370495.2,286047000.0,N
1594370515.0,286047000.6,N
1594370515.9,286047000.6,N
1594370535.8,286047000.3,N
1594370555.6,286047000.4,N
1594370575.5,286047000.1,N
1594370595.3,286046999.9,N
1594370615.1,286047001.4,N
1594370635.9,286047001.4,N
1594370655.7,286047001.8,N
1594370675.6,286047001.7,N
1594370695.4,286047002.8,N
1594370715.2,286047000.3,N
1594370735.1,286047002.7,N
1594370736.0,286047002.7,N
1594370755.8,286047002.5,N
1594370775.7,286047004.3,Y
1594370795.5,286047002.8,P
1594370815.3,286047002.8,N
1594370835.2,286047002.3,N
1594370855.0,286047002.5,N
1594370855.9,286047002.5,Y
1594370875.7,286046998.2,P
1594370895.6,286046998.7,N
1594370915.4,286047000.4,N
1594370935.3,286047001.0,N
1594370955.1,286047000.5,N
1594370975.9,286047000.3,N
1594370995.7,286047000.6,N
1594371015.5,286047000.8,N
1594371035.4,286046998.7,N
1594371055.2,286046998.7,N
1594371075.0,286046998.3,N
1594371075.9,286046998.3,N
1594371095.8,286047001.0,N
1594371115.6,286047000.9,N
1594371135.5,286047000.8,N
1594371155.3,286047000.1,N
1594371175.1,286046999.9,N
1594371195.9,286046999.9,N
1594371215.7,286046999.7,N
1594371235.6,286046999.7,N
1594371255.4,286046999.9,N
1594371275.2,286047000.0,N
1594371295.1,286047000.9,N
1594371296.0,286047000.9,N
1594371315.8,286047000.6,N
1594371335.7,286046998.2,N
1594371355.5,286047000.5,N
1594371375.3,286047000.5,N
1594371395.2,286047001.1,N
1594371415.0,286046998.1,N
1594371415.9,286046998.1,N
1594371435.7,286047000.4,N
1594371455.6,286046998.1,N
1594371475.4,286046998.2,N
1594371495.3,286046998.2,N
1594371515.1,286047001.1,N
1594371516.0,286047001.1,N
1594371535.8,286046998.8,N
1594371555.7,286046999.0,N
1594371575.5,286046998.1,N
1594371595.4,286046998.9,N
